TimeEST,TemperatureF,Dew PointF,Humidity,Sea Level PressureIn,VisibilityMPH,Wind Direction,Wind SpeedMPH,Gust SpeedMPH,PrecipitationIn,Events,Conditions,WindDirDegrees,DateUTC
12:54 AM,25.0,9.0,51,30.53,10.0,NE,8.1,-,N/A,,Clear,40,2013-01-25 05:54:00
1:54 AM,24.1,9.0,53,30.53,10.0,NE,3.5,-,N/A,,Clear,40,2013-01-25 06:54:00
2:54 AM,23.0,10.0,58,30.54,10.0,NNE,5.8,-,N/A,,Clear,20,2013-01-25 07:54:00
3:54 AM,24.1,10.0,55,30.53,10.0,NNW,4.6,-,N/A,,Clear,340,2013-01-25 08:54:00
4:54 AM,24.1,10.0,55,30.51,10.0,NNE,5.8,-,N/A,,Clear,20,2013-01-25 09:54:00
5:54 AM,25.0,10.0,53,30.51,10.0,NNE,4.6,-,N/A,,Clear,20,2013-01-25 10:54:00
7:54 AM,26.1,9.0,49,30.51,10.0,NNE,8.1,-,N/A,,Clear,20,2013-01-25 12:54:00
8:54 AM,28.0,10.9,49,30.49,10.0,NNE,5.8,-,N/A,,Clear,30,2013-01-25 13:54:00
9:54 AM,30.9,10.9,43,30.48,10.0,ENE,3.5,-,N/A,,Clear,70,2013-01-25 14:54:00
10:54 AM,33.1,14.0,46,30.46,-9999.0,North,-9999.0,-,N/A,,Unknown,0,2013-01-25 15:54:00
11:31 AM,33.8,15.8,48,30.43,2.0,North,-9999.0,-,N/A,,Haze,0,2013-01-25 16:31:00
11:38 AM,33.8,15.8,48,30.43,-9999.0,NNE,4.6,-,N/A,,Unknown,20,2013-01-25 16:38:00
11:54 AM,34.0,16.0,48,30.41,-9999.0,North,-9999.0,-,N/A,,Unknown,0,2013-01-25 16:54:00
12:51 PM,33.8,17.6,52,30.35,2.5,ESE,3.5,-,N/A,,Haze,120,2013-01-25 17:51:00
12:54 PM,34.0,17.1,50,30.34,10.0,Calm,Calm,-,N/A,,Unknown,0,2013-01-25 17:54:00
1:54 PM,34.0,19.9,56,30.26,10.0,ESE,5.8,-,0.00,,Overcast,110,2013-01-25 18:54:00
2:54 PM,34.0,21.0,59,30.24,10.0,ENE,3.5,-,0.00,,Overcast,70,2013-01-25 19:54:00
3:54 PM,34.0,23.0,64,30.25,10.0,North,8.1,-,0.00,Rain,Light Rain,360,2013-01-25 20:54:00
4:01 PM,33.8,23.0,65,30.23,10.0,NNE,6.9,-,0.00,,Overcast,20,2013-01-25 21:01:00
4:37 PM,32.0,26.6,80,30.21,4.0,NE,3.5,-,0.01,Rain,Light Freezing Rain,50,2013-01-25 21:37:00
4:54 PM,30.9,27.0,85,30.21,4.0,NE,5.8,-,0.02,Rain,Light Freezing Rain,50,2013-01-25 21:54:00
5:05 PM,30.2,26.6,86,30.20,4.0,NE,4.6,-,0.02,Rain,Light Freezing Rain,50,2013-01-25 22:05:00
5:21 PM,30.2,28.4,93,30.18,5.0,Calm,Calm,-,0.05,Rain,Light Freezing Rain,0,2013-01-25 22:21:00
5:41 PM,32.0,28.4,87,30.16,4.0,Calm,Calm,-,0.07,Rain,Light Freezing Rain,0,2013-01-25 22:41:00
5:54 PM,30.9,28.0,89,30.15,5.0,SE,5.8,-,0.09,Rain,Light Freezing Rain,130,2013-01-25 22:54:00
5:59 PM,32.0,28.4,87,30.15,5.0,SSE,3.5,-,0.00,,Overcast,150,2013-01-25 22:59:00
6:07 PM,32.0,28.4,87,30.15,5.0,South,3.5,-,0.01,,Overcast,180,2013-01-25 23:07:00
6:35 PM,32.0,28.4,87,30.15,5.0,Variable,3.5,-,0.05,,Overcast,0,2013-01-25 23:35:00
6:54 PM,32.0,30.0,92,30.16,4.0,NNW,9.2,-,0.07,,Overcast,330,2013-01-25 23:54:00
7:54 PM,33.1,30.9,92,30.14,6.0,NNW,4.6,-,0.04,Rain,Light Rain,330,2013-01-26 00:54:00
8:23 PM,33.8,30.2,87,30.15,7.0,NW,8.1,-,0.01,Rain,Light Rain,320,2013-01-26 01:23:00
8:54 PM,33.1,30.0,89,30.15,10.0,NNW,10.4,-,0.01,,Overcast,330,2013-01-26 01:54:00
9:54 PM,32.0,28.9,88,30.15,8.0,WNW,4.6,-,N/A,,Overcast,300,2013-01-26 02:54:00
10:54 PM,32.0,28.9,88,30.14,7.0,West,5.8,-,N/A,,Overcast,280,2013-01-26 03:54:00
11:12 PM,32.0,28.4,87,30.14,6.0,WNW,5.8,-,N/A,,Overcast,290,2013-01-26 04:12:00
11:54 PM,32.0,28.9,88,30.16,6.0,WNW,5.8,-,N/A,,Partly Cloudy,300,2013-01-26 04:54:00